Location: Casilda
(33.0440°S, 61.1680°W)
Time: 04:35:45
(UTC-03:00)

ISS - Visible Passes

Search period start: 11 August 2020 00:00
Search period end: 21 August 2020 00:00
Orbit: 418 x 420 km, 51.6° (Epoch: 11 August)

Date Brightness Start Highest point End Pass type
(mag) Time Alt. Az. Time Alt. Az. Time Alt. Az.
11 Aug -0.7 05:26:46 14° ESE 05:26:46 14° ESE 05:27:46 10° ESE visible
11 Aug -3.4 06:59:45 14° WSW 07:02:30 48° NW 07:05:46 10° NNE visible
12 Aug -3.8 06:14:35 67° SSW 06:15:00 84° SE 06:18:23 10° NE visible
13 Aug -1.0 05:29:32 19° ENE 05:29:32 19° ENE 05:30:41 10° ENE visible
13 Aug -1.6 07:02:32 11° W 07:03:54 13° NW 07:05:38 10° NNW visible
14 Aug -2.0 06:17:34 21° NNW 06:17:34 21° NNW 06:19:19 10° N visible
15 Aug -1.2 20:29:02 10° NNW 20:29:44 15° NNW 20:29:44 15° NNW visible
16 Aug -2.3 19:42:05 10° N 19:44:47 22° NE 19:44:54 22° NE visible
17 Aug -2.3 20:30:29 10° WNW 20:32:58 39° W 20:32:58 39° W visible
18 Aug -3.8 19:42:46 10° NW 19:46:09 85° NE 19:47:56 26° SE visible
19 Aug -1.3 20:33:06 10° WSW 20:35:31 18° SSW 20:35:45 18° SSW visible
20 Aug -1.9 19:44:45 10° W 19:47:45 28° SW 19:50:29 12° SSE visible
